User: anonymous   Login
Location: Unspecified
(0.0000°N, 0.0000°E)
Time: 00:57:57
(UTC+01:00)
Language:

Cosmos 1315 Rocket - Orbit

View from above orbital plane
View from above orbital plane
View from above satellite
View from above satellite

Ground track
Ground track

The orbit data is extracted from the following two-line orbital elements,

1 12904U 81103B   15063.85124099  .00003213  00000-0  23072-3 0  9998
2 12904 081.1801 148.7839 0028287 291.9671 067.8545 15.03736950367201
Epoch (UTC): 04 March 2015 20:25:47
Eccentricity: 0.0028287
inclination: 81.1801°
perigee height: 536 km
apogee height: 575 km
right ascension of ascending node: 148.7839°
argument of perigee: 291.9671°
revolutions per day: 15.03736950
mean anomaly at epoch: 67.8545°
orbit number at epoch: 36720

The dashed part of the orbit path shows where the satellite is in the earth's shadow,  

DLR